Station BLIF1 - 8720233 - Blount Island Command, St Johns River, FL Image indicating link to RSS feed of recent meteorological observations for station BLIF1


Conditions at BLIF1 as of
(7:18 pm EDT)
2318 GMT on 05/17/2024:
     

Click on the graph icon in the table below to see a time series plot of the last five days of that observation.

5-day plot - Wind Direction Wind Direction (WDIR): E ( 90 deg true )
5-day plot - Wind Speed Wind Speed (WSPD): 5.1 kts
5-day plot - Wind Gust Wind Gust (GST): 6.0 kts
5-day plot - Atmospheric Pressure Atmospheric Pressure (PRES):29.91 in
5-day plot - Air Temperature Air Temperature (ATMP): 81.0 °F
5-day plot - Dew Point Dew Point (DEWP): 75.4 °F
5-day plot - Visibility Visibility (VIS): 5.9 nmi
5-day plot - Heat Index Heat Index (HEAT): 86.9 °F
5-day plot - Wind Speed at 10 Meters Wind Speed at 10 meters (WSPD10M): 5.8 kts
5-day plot - Wind Speed at 20 Meters Wind Speed at 20 meters (WSPD20M): 5.8 kts
5-day plot -  Wind Speed, Wind Gust and Atmospheric Pressure Combined plot of Wind Speed, Gust, and Air Pressure
NOS Water Level Observation Network Water Level
Previous observations
TIME
(EDT)
5-day plot - Wind Direction
WDIR
 
5-day plot - Wind Speed
WSPD
kts
5-day plot - Wind Gust
GST
kts
5-day plot - Wave Height
WVHT
ft
5-day plot - Dominant Wave Period
DPD
sec
5-day plot - Average Wave Period
APD
sec
5-day plot - Mean Wave Direction
MWD
 
5-day plot - Atmospheric Pressure
PRES
in
5-day plot - Pressure Tendency
PTDY
in
5-day plot - Air Temperature
ATMP
°F
5-day plot - Water Temperature
WTMP
°F
5-day plot - Dew Point
DEWP
°F
5-day plot - Salinity
SAL
psu
5-day plot - Visibility
VIS
nmi
5-day plot - Tide (above MLLW)
TIDE
ft
2024-05-17 07:12 pmESE 5.1 6.0----29.91- 81.1- 75.2- 5.9-
2024-05-17 07:06 pm E 4.1 6.0----29.91- 81.3- 75.2- 5.9-
2024-05-17 07:00 pm E 5.1 5.1----29.91+0.00 81.7- 75.2- 5.9-
2024-05-17 06:54 pm E 5.1 6.0----29.91- 81.7- 74.8- 5.9-
2024-05-17 06:48 pm E 5.1 6.0----29.91- 81.9- 75.2- 5.9-
2024-05-17 06:42 pm E 5.1 7.0----29.91- 81.5- 75.0- 5.9-
2024-05-17 06:36 pm E 6.0 7.0----29.91- 81.3- 74.8- 5.9-
2024-05-17 06:30 pm-------29.90- 81.3--- 5.9-
2024-05-17 06:24 pm-------29.91- 81.5--- 5.9-
2024-05-17 06:18 pm E 6.0 7.0----29.91----- 5.9-
2024-05-17 06:12 pm E 6.0 9.9----29.90----- 5.9-
2024-05-17 06:06 pm E 8.0 8.9----29.90----- 5.9-
2024-05-17 06:00 pm E 7.0 8.0----29.90-0.01 82.0- 74.8- 5.9-
2024-05-17 05:54 pm E 6.0 8.0----29.91- 82.6- 74.7- 5.9-
2024-05-17 05:48 pm E 5.1 6.0----29.90- 83.1- 74.8- 5.9-
2024-05-17 05:42 pm E 5.1 6.0----29.91- 83.5- 74.8- 5.9-
2024-05-17 05:36 pm E 5.1 6.0----29.91- 82.9- 74.1- 5.9-
2024-05-17 05:30 pmENE 4.1 7.0----29.91- 83.1- 73.9- 5.9-
2024-05-17 05:24 pmENE 7.0 8.0----29.90- 82.8- 73.8- 5.9-
2024-05-17 05:18 pm E 5.1 7.0----29.91- 82.9- 74.7- 5.9-
2024-05-17 05:12 pm E 6.0 7.0----29.91- 82.9- 75.0- 5.9-
2024-05-17 05:06 pm E 6.0 8.0----29.91- 83.3- 74.8- 5.9-
2024-05-17 05:00 pm E 6.0 8.0----29.91+0.00 84.4- 75.2- 5.9-
2024-05-17 04:54 pm E 6.0 8.0----29.91- 84.6- 74.7- 5.9-
2024-05-17 04:48 pm SE 2.9 2.9----29.90- 85.1- 72.0- 5.9-
2024-05-17 04:42 pm N 2.9 5.1----29.91- 84.4- 70.3- 5.9-
2024-05-17 04:36 pm N 1.9 4.1----29.91- 84.6- 70.7- 5.9-
2024-05-17 04:30 pm- 0.0 2.9----29.90- 84.9- 72.5- 5.9-
2024-05-17 04:24 pmENE 2.9 4.1----29.91- 83.8- 72.0- 5.9-
2024-05-17 04:18 pm- 0.0 1.9----29.91- 84.9- 72.3- 5.9-
2024-05-17 04:12 pmSSW 1.9 4.1----29.91- 84.4- 72.7- 5.9-
2024-05-17 04:06 pm E 1.9 5.1----29.91- 84.4- 73.4- 5.9-
2024-05-17 04:00 pmSSW 1.9 4.1----29.91+0.02 84.9- 74.1- 5.9-
2024-05-17 03:54 pm E 1.0 5.1----29.91- 85.5- 74.8- 5.9-
2024-05-17 03:48 pm W 2.9 5.1----29.91- 85.1- 72.9- 5.9-
2024-05-17 03:42 pm W 2.9 6.0----29.91- 84.6- 72.0- 5.9-
2024-05-17 03:36 pmNNW 1.9 7.0----29.91- 83.7- 72.0- 5.9-
2024-05-17 03:30 pm N 4.1 8.0----29.91- 83.8- 72.9- 5.9-
2024-05-17 03:24 pm NW 4.1 7.0----29.91- 83.5- 72.9- 5.9-
2024-05-17 03:18 pmWNW 1.9 8.0----29.91- 83.7- 73.2- 5.9-
2024-05-17 03:12 pm N 2.9 8.0----29.91- 82.6- 72.9- 5.9-
2024-05-17 03:06 pmWNW 6.0 8.0----29.92- 82.6- 73.0- 5.9-
2024-05-17 03:00 pm W 4.1 6.0----29.91+0.09 82.0- 73.8- 5.9-
2024-05-17 02:54 pmWSW 6.0 8.0----29.92- 81.9- 73.2- 5.9-
2024-05-17 02:48 pmWNW 2.9 6.0---------- 5.9-
2024-05-17 02:42 pmWNW 4.1 7.0------------
2024-05-17 02:36 pmWSW 4.1 6.0------------
2024-05-17 02:30 pm W 5.1 7.0----29.92- 80.4- 72.7---
2024-05-17 02:24 pm SW 4.1 5.1----29.92- 80.2- 72.5---
2024-05-17 02:18 pmWSW 4.1 8.0----29.91- 80.2- 71.8---
2024-05-17 02:12 pmWSW 7.0 8.9----29.92- 80.1- 72.1---
2024-05-17 02:06 pmWSW 5.1 8.0----29.91- 81.5- 72.3---
2024-05-17 02:00 pm W 2.9 5.1----29.91-0.01 81.7- 73.4---
2024-05-17 01:54 pm W 5.1 8.0----29.92- 81.3- 73.4---
2024-05-17 01:48 pm W 5.1 6.0----29.92-------
2024-05-17 01:42 pmWSW 1.9 7.0----29.91-------
2024-05-17 01:36 pmWSW 6.0 8.0----29.91-------
2024-05-17 01:30 pmWSW 5.1 8.0----29.91- 79.7- 74.5---
2024-05-17 01:24 pm SW 4.1 6.0----29.89- 79.3- 74.7---
2024-05-17 01:18 pm SW 6.0 8.9----29.89- 78.8- 74.5---
2024-05-17 01:12 pmWSW 5.1 7.0----29.89- 78.4- 74.8---
2024-05-17 01:06 pm SW 6.0 8.0----29.88- 78.3- 74.7---
2024-05-17 01:00 pm SW 7.0 8.0----29.88-0.07 77.9- 74.1---
2024-05-17 12:54 pm SW 2.9 5.1----29.88- 78.4- 74.5---
2024-05-17 12:48 pm S 1.0 4.1----29.87- 78.4- 75.0---
2024-05-17 12:42 pm E 2.9 5.1----29.86- 78.6- 75.6---
2024-05-17 12:36 pm E 4.1 6.0----29.85- 77.7- 75.0---
2024-05-17 12:30 pm NE 5.1 8.0----29.84- 76.8- 74.7---
2024-05-17 12:24 pmENE 6.0 11.1----29.82- 77.0- 75.7---
2024-05-17 12:18 pm E 8.0 14.0----29.81- 76.5- 75.4---
2024-05-17 12:12 pm E 12.0 14.0----29.80- 76.1- 75.0---
2024-05-17 12:06 pm E 9.9 13.0----29.81- 76.1- 75.0---
2024-05-17 12:00 pm E 8.0 9.9----29.83-0.13 76.1- 75.2---
2024-05-17 11:54 am E 2.9 5.1----29.85- 75.7- 75.2---
2024-05-17 11:48 amSSE 1.9 5.1----29.86- 75.6- 75.2---
2024-05-17 11:42 am S 4.1 8.0----29.87- 75.4- 75.2---
2024-05-17 11:36 am S 5.1 13.0----29.87- 74.8- 74.8---
2024-05-17 11:30 amSSE 13.0 18.1----29.83- 74.8- 74.7---
2024-05-17 11:24 am S 11.1 13.0----29.86- 75.0- 74.5---
2024-05-17 11:18 am S 8.9 12.0----29.89- 75.4- 74.5---
2024-05-17 11:12 am S 12.0 14.0----29.91- 75.2- 73.9---
2024-05-17 11:06 amSSW 11.1 13.0----29.92- 75.4- 73.9---
2024-05-17 11:00 amSSW 11.1 13.0----29.93-0.01 75.7- 74.3---
2024-05-17 10:54 amSSW 8.0 9.9----29.93- 75.7- 74.1---
2024-05-17 10:48 amSSW 8.0 8.9----29.93- 75.7- 73.8---
2024-05-17 10:42 amSSW 6.0 7.0----29.93- 75.7- 73.6---
2024-05-17 10:36 amSSW 5.1 6.0----29.93- 75.6- 73.4---
2024-05-17 10:30 am SW 6.0 7.0----29.94- 75.6- 73.4---
2024-05-17 10:24 amSSW 5.1 6.0----29.94- 75.4- 73.2---
2024-05-17 10:18 am SW 5.1 7.0----29.94- 75.6- 73.6---
2024-05-17 10:12 amWSW 5.1 8.0----29.95- 75.2- 73.0---
2024-05-17 10:06 amWSW 6.0 8.0----29.95- 75.4- 73.4---
2024-05-17 10:00 amWSW 5.1 7.0----29.95+0.04 75.4- 73.4---
2024-05-17 09:54 am W 6.0 8.0----29.95- 75.0- 73.0---
2024-05-17 09:48 amWSW 7.0 8.0----29.96- 75.0- 73.2---
2024-05-17 09:42 amWSW 6.0 8.0----29.96- 75.2- 73.4---
2024-05-17 09:36 amWSW 7.0 8.9----29.96- 75.0- 73.4---
2024-05-17 09:30 amWSW 7.0 9.9----29.96- 75.0- 73.6---
2024-05-17 09:24 amWSW 7.0 8.9----29.96- 75.0- 73.6---
2024-05-17 09:18 amWSW 6.0 7.0----29.96- 75.2- 73.8---
2024-05-17 09:12 am W 5.1 7.0----29.96- 74.8- 73.2---
2024-05-17 09:06 am W 5.1 6.0----29.96- 74.7- 73.2---
2024-05-17 09:00 amWSW 5.1 7.0----29.96+0.09 75.0- 73.6---
2024-05-17 08:54 am W 4.1 5.1----29.95- 75.0- 73.4---
2024-05-17 08:48 am W 5.1 7.0----29.95- 74.7- 73.0---
2024-05-17 08:42 am W 5.1 6.0----29.94- 74.8- 73.2---
2024-05-17 08:36 am W 4.1 6.0----29.93- 74.8- 73.4---
2024-05-17 08:30 am W 2.9 5.1----29.93- 74.8- 73.4---
2024-05-17 08:24 am W 2.9 6.0----29.93- 74.7- 73.4---
2024-05-17 08:18 amWNW 4.1 6.0----29.93- 74.5- 73.2---
2024-05-17 08:12 am W 5.1 7.0----29.93- 74.5- 73.4---
2024-05-17 08:06 am W 2.9 6.0----29.94- 74.7- 73.9---
2024-05-17 08:00 am W 2.9 7.0----29.94+0.09 74.5- 73.9---
2024-05-17 07:54 am W 4.1 8.9----29.94- 74.3- 74.1---
2024-05-17 07:48 am W 8.0 11.1----29.94- 74.3- 74.3---
2024-05-17 07:42 amWSW 6.0 9.9----29.93- 74.5- 74.5---
2024-05-17 07:36 amWSW 7.0 8.9----29.93- 74.5- 74.5---
2024-05-17 07:30 amWSW 7.0 8.9----29.93- 74.3- 74.3---
2024-05-17 07:24 am SW 7.0 8.0----29.92- 73.6- 73.6---
2024-05-17 07:18 am SW 6.0 7.0----29.92- 73.6- 73.6---
2024-05-17 07:12 am SW 6.0 7.0----29.92- 73.8- 73.8---
2024-05-17 07:06 amSSW 6.0 8.0----29.91- 73.4- 73.4---
2024-05-17 07:00 amSSW 7.0 8.0----29.91+0.08 73.6- 73.6---
2024-05-17 06:54 amSSW 7.0 7.0----29.91- 73.2- 73.2---
2024-05-17 06:48 amSSW 6.0 7.0----29.91- 73.4- 73.4---
2024-05-17 06:42 am SW 6.0 7.0----29.91- 73.4- 73.4---
2024-05-17 06:36 am SW 5.1 6.0----29.91- 73.6- 73.6---
2024-05-17 06:30 am SW 5.1 5.1----29.90- 73.4- 73.4---
2024-05-17 06:24 amSSW 2.9 5.1----29.89- 73.0- 73.0---
2024-05-17 06:18 amSSW 4.1 5.1----29.89- 73.0- 73.0---
2024-05-17 06:12 am SW 2.9 4.1----29.88- 73.0- 73.0---
2024-05-17 06:06 am SW 1.9 4.1----29.87- 73.0- 73.0---
2024-05-17 06:00 amSSW 1.9 4.1----29.87+0.03 73.0- 73.0---
2024-05-17 05:54 am S 2.9 2.9----29.86- 72.9- 72.9---
2024-05-17 05:48 am S 2.9 4.1----29.86- 72.9- 72.9---
2024-05-17 05:42 am S 2.9 5.1----29.86- 73.0- 73.0---
2024-05-17 05:36 am S 4.1 5.1----29.86- 73.0- 73.0---
2024-05-17 05:30 am S 2.9 5.1----29.86- 73.0- 73.0---
2024-05-17 05:24 amSSW 2.9 5.1----29.86- 73.0- 73.0---
2024-05-17 05:18 amSSW 2.9 5.1----29.86- 73.0- 73.0---
2024-05-17 05:12 am S 4.1 5.1----29.85- 72.9- 72.9---
2024-05-17 05:06 am S 4.1 6.0----29.85- 72.9- 72.9---
2024-05-17 05:00 am S 4.1 5.1----29.85- 73.2- 73.2---
2024-05-17 04:54 am S 4.1 5.1----29.84- 73.2- 73.2---
2024-05-17 04:48 am S 4.1 4.1----29.85- 73.0- 73.0---
2024-05-17 04:42 amSSE 2.9 4.1----29.84- 73.2- 73.2---
2024-05-17 04:36 amSSE 4.1 5.1----29.84- 73.4- 73.4---
2024-05-17 04:30 am S 5.1 5.1----29.84- 73.4- 73.4---
2024-05-17 04:24 am S 4.1 4.1----29.84- 73.6- 73.6---
2024-05-17 04:18 am S 4.1 6.0----29.84- 73.6- 73.6---
2024-05-17 04:12 am S 5.1 6.0----29.84- 73.8- 73.8---
2024-05-17 04:06 am S 5.1 7.0----29.84- 73.8- 73.8---
2024-05-17 04:00 am S 5.1 6.0----29.84-0.03 73.8- 73.6---
2024-05-17 03:54 am S 4.1 6.0----29.84- 73.9- 73.8---
2024-05-17 03:48 amSSE 2.9 5.1----29.83- 73.9- 73.8---
2024-05-17 03:42 amSSE 2.9 4.1----29.83- 74.1- 73.8---
2024-05-17 03:36 am S 4.1 5.1----29.83- 74.3- 73.9---
2024-05-17 03:30 am S 5.1 6.0----29.83- 74.5- 74.1---
2024-05-17 03:24 am S 5.1 7.0----29.84- 74.5- 73.9---
2024-05-17 03:18 am S 6.0 8.0----29.84- 74.7- 74.1---
2024-05-17 03:12 am S 6.0 8.9----29.84- 74.7- 73.9---
2024-05-17 03:06 am S 8.0 9.9----29.84- 74.8- 73.9---
2024-05-17 03:00 am S 8.0 8.9----29.84-0.04 74.8- 73.9---
2024-05-17 02:54 am S 8.0 9.9----29.84- 75.0- 73.9---
2024-05-17 02:48 am S 8.0 9.9----29.84- 75.0- 73.9---
2024-05-17 02:42 am S 8.9 11.1----29.84- 75.0- 73.9---
2024-05-17 02:36 am S 8.0 11.1----29.85- 75.2- 73.9---
2024-05-17 02:30 am S 8.0 9.9----29.85- 75.4- 74.1---
2024-05-17 02:24 am S 7.0 9.9----29.85- 75.6- 74.3- 5.9-
2024-05-17 02:18 am S 7.0 8.9----29.86- 75.6- 74.1- 5.9-
2024-05-17 02:12 am S 8.0 8.9----29.86- 75.6- 73.9- 5.9-
2024-05-17 02:06 am S 8.0 8.9----29.86- 75.7- 73.9- 5.9-
2024-05-17 02:00 am S 7.0 8.9------ 75.7- 73.6- 5.9-
2024-05-17 01:54 am S 6.0 8.9------ 75.7- 73.2- 5.9-
2024-05-17 01:48 am S 7.0 9.9----29.87- 75.7- 73.0- 5.9-
2024-05-17 01:42 am S 7.0 8.9----29.87- 75.9- 72.9- 5.9-
2024-05-17 01:36 am S 6.0 8.9----29.87- 75.9- 72.5- 5.9-
2024-05-17 01:30 am S 6.0 9.9----29.87- 76.3- 72.5- 5.9-
2024-05-17 01:24 am S 8.0 11.1----29.87- 76.3- 72.5- 5.9-
2024-05-17 01:18 am S 8.0 12.0----29.87- 76.5- 72.5- 5.9-
2024-05-17 01:12 amSSE 8.0 9.9----29.86- 76.3- 72.3- 5.9-
2024-05-17 01:06 am S 8.0 9.9----29.86- 76.3- 72.5- 5.9-
2024-05-17 01:00 am S 8.0 9.9----29.87+0.00 76.3- 72.3- 5.9-
2024-05-17 12:54 am S 8.0 12.0----29.88- 76.3- 72.3- 5.9-
2024-05-17 12:48 am S 8.0 9.9----29.88- 76.1- 72.0- 5.9-
2024-05-17 12:42 am S 7.0 8.9----29.88- 76.3- 71.8- 5.9-
2024-05-17 12:36 am S 8.0 9.9----29.88- 76.3- 71.6- 5.9-
2024-05-17 12:30 am S 8.0 9.9----29.88- 76.3- 71.6- 5.9-
2024-05-17 12:24 am S 7.0 8.9----29.88- 76.3- 71.4- 5.9-
2024-05-17 12:18 am S 6.0 8.9----29.88- 76.5- 71.6- 5.9-
2024-05-17 12:12 am S 7.0 8.9----29.88- 76.5- 71.4- 5.9-
2024-05-17 12:06 am S 5.1 8.0----29.88- 76.5- 71.2- 5.9-
2024-05-17 12:00 am S 6.0 7.0----29.88+0.02 76.6- 71.2- 5.9-
2024-05-16 11:54 pm S 7.0 8.0----29.88- 76.6- 71.2- 5.9-
2024-05-16 11:48 pm S 7.0 8.0----29.88- 76.6- 71.4- 5.9-
2024-05-16 11:42 pm S 6.0 8.0----29.88- 76.6- 71.4- 5.9-
2024-05-16 11:36 pm S 7.0 8.9----29.88- 76.6- 71.1- 5.9-
2024-05-16 11:30 pm S 7.0 8.9----29.88- 77.0- 71.4- 5.9-
2024-05-16 11:24 pm S 8.0 9.9----29.87- 76.8- 71.2- 5.9-
2024-05-16 11:18 pm S 8.0 9.9----29.86- 77.0- 71.6- 5.9-
2024-05-16 11:12 pmSSE 7.0 9.9----29.85- 77.0- 71.8- 5.9-
2024-05-16 11:06 pmSSE 7.0 11.1----29.85- 77.2- 72.0- 5.9-
2024-05-16 11:00 pmSSE 7.0 9.9----29.85+0.01 77.0- 71.8- 5.9-
2024-05-16 10:54 pmSSE 8.9 11.1----29.85- 77.2- 72.0- 5.9-
2024-05-16 10:48 pmSSE 7.0 8.9----29.85- 77.4- 72.1- 5.9-
2024-05-16 10:42 pmSSE 6.0 8.0----29.86- 77.4- 71.8- 5.9-
2024-05-16 10:36 pmSSE 6.0 8.0----29.86- 77.5- 71.6- 5.9-
2024-05-16 10:30 pmSSE 5.1 8.0----29.87- 77.5- 71.2- 5.9-
2024-05-16 10:24 pmSSE 5.1 7.0----29.87- 77.5- 70.9- 5.9-
2024-05-16 10:18 pm S 5.1 7.0----29.87- 77.5- 70.7- 5.9-
2024-05-16 10:12 pm S 5.1 7.0----29.87- 77.7- 70.7- 5.9-
2024-05-16 10:06 pm S 4.1 7.0----29.88- 77.5- 70.2- 5.9-
2024-05-16 10:00 pm S 5.1 6.0----29.88+0.06 77.5- 70.2- 5.9-
2024-05-16 09:54 pmSSE 5.1 7.0----29.87- 77.9- 70.5- 5.9-
2024-05-16 09:48 pmSSE 6.0 8.0----29.87- 77.9- 70.2- 5.9-
2024-05-16 09:42 pm SE 5.1 6.0----29.87- 77.9- 70.0- 5.9-
2024-05-16 09:36 pmESE 4.1 7.0----29.86- 78.1- 70.0- 5.9-
2024-05-16 09:30 pm SE 4.1 6.0----29.85- 78.1- 69.8- 5.9-
2024-05-16 09:24 pm SE 5.1 7.0----29.85- 78.1- 69.4- 5.9-
2024-05-16 09:18 pmSSE 5.1 8.0----29.86- 78.3- 69.4- 5.9-
2024-05-16 09:12 pm SE 2.9 5.1----29.86- 78.3- 69.3- 5.9-
2024-05-16 09:06 pm SE 1.9 4.1----29.86- 78.4- 69.4- 5.9-
2024-05-16 09:00 pm SE 2.9 6.0----29.86+0.07 78.4- 69.3- 5.9-
2024-05-16 08:54 pmSSE 4.1 8.0----29.86- 78.6- 69.3- 5.9-
2024-05-16 08:48 pmSSE 6.0 8.9----29.86- 78.6- 69.3- 5.9-
2024-05-16 08:42 pm S 5.1 7.0----29.85- 78.8- 69.4- 5.9-
2024-05-16 08:36 pmSSE 5.1 8.9----29.85- 79.0- 69.6- 5.9-
2024-05-16 08:30 pmSSE 6.0 8.9----29.85- 79.0- 69.6- 5.9-
2024-05-16 08:24 pm S 5.1 8.0----29.85- 79.0- 69.6- 5.9-
2024-05-16 08:18 pmSSE 7.0 8.9----29.85- 79.2- 69.6- 5.9-
2024-05-16 08:12 pm SE 7.0 11.1----29.85- 79.3- 69.8- 5.9-
2024-05-16 08:06 pmSSE 8.0 11.1----29.84- 79.3- 69.4- 5.9-
2024-05-16 08:00 pm SE 8.0 13.0----29.84+0.05 79.9- 69.8- 5.9-
2024-05-16 07:54 pm SE 8.9 12.0----29.84- 79.9- 69.4- 5.9-